, MS

(GMT )
Nakika

Weather History for KIKT - December, 2013

Change the Weather History Date:

Tuesday, December 24, 2013

  Actual Average Record
Temperature  
Mean Temperature 56 °F -  
Max Temperature 59 °F - - ()
Min Temperature 53 °F - - ()
Degree Days  
Heating Degree Days 9    
Growing Degree Days 6 (Base 50)    
Moisture  
Dew Point 44 °F    
Average Humidity 63    
Maximum Humidity 77    
Minimum Humidity 51    
Precipitation  
Precipitation 0.00 in - - ()
Sea Level Pressure  
Sea Level Pressure 30.35 in    
Wind  
Wind Speed 16 mph (NNE)    
Max Wind Speed 31 mph    
Max Gust Speed 37 mph    
Visibility 10 miles    
Events      
Averages and records for this station are not official NWS values.
T = Trace of Precipitation, MM = Missing Value Source: NWS Daily Summary

Daily Weather History Graph

Daily Weather History Graph

Search for Another Location

Airport or City:

Trip Planner

Search our weather history database for the weather conditions in past years. The results will help you decide how hot, cold, wet, or windy it might be!

Date:

Astronomy

Dec. 24, 2013 Rise Set
Actual Time 6:43 AM CST 5:02 PM CST
Civil Twilight 6:17 AM CST 5:28 PM CST
Nautical Twilight 5:47 AM CST 5:58 PM CST
Astronomical Twilight 5:18 AM CST 6:27 PM CST
Moon 11:37 PM CST (12/24) 11:07 AM CST (12/24)
Length of Visible Light 11h 11m
Length of Day
10h 19m
Waning Gibbous, 58% of the Moon is Illuminated
Dec 24
Waning Gibbous
Dec 25
Last Quarter
Jan 1
New
Jan 7
First Quarter
Jan 15
Full

Hourly Weather History & Observations

Time (CST) Temp. Dew Point Humidity Pressure Visibility Wind Dir Wind Speed Gust Speed Precip Events Conditions
12:15 AM 55.4 °F 46.4 °F 72% 30.34 in 10.0 mi Variable 6.9 mph 15.0 mph N/A   Overcast
12:35 AM 55.4 °F 46.4 °F 72% 30.33 in 10.0 mi NNW 9.2 mph 20.7 mph N/A   Overcast
12:55 AM 55.4 °F 46.4 °F 72% 30.34 in 10.0 mi Variable 6.9 mph 19.6 mph N/A   Overcast
1:15 AM 55.4 °F 48.2 °F 77% 30.34 in 10.0 mi NW 9.2 mph 20.7 mph N/A   Overcast
1:35 AM 55.4 °F 46.4 °F 72% 30.33 in 10.0 mi Variable 8.1 mph 25.3 mph N/A   Overcast
1:55 AM 55.4 °F 46.4 °F 72% 30.33 in 10.0 mi NNW 10.4 mph 25.3 mph N/A   Overcast
2:15 AM 55.4 °F 46.4 °F 72% 30.33 in 10.0 mi NNW 9.2 mph 25.3 mph N/A   Overcast
2:35 AM 53.6 °F 44.6 °F 72% 30.33 in 10.0 mi North 16.1 mph 27.6 mph N/A   Overcast
2:55 AM 53.6 °F 44.6 °F 72% 30.34 in 10.0 mi NNW 11.5 mph 23.0 mph N/A   Overcast
3:15 AM 53.6 °F 44.6 °F 72% 30.33 in 10.0 mi North 19.6 mph 27.6 mph N/A   Overcast
3:35 AM 53.6 °F 46.4 °F 77% 30.33 in 10.0 mi North 20.7 mph 32.2 mph N/A   Overcast
3:55 AM 53.6 °F 44.6 °F 72% 30.33 in 10.0 mi NW 9.2 mph 25.3 mph N/A   Overcast
4:15 AM 53.6 °F 44.6 °F 72% 30.33 in 10.0 mi North 16.1 mph 33.4 mph N/A   Overcast
4:35 AM 53.6 °F 44.6 °F 72% 30.33 in 10.0 mi North 24.2 mph 34.5 mph N/A   Overcast
4:55 AM 53.6 °F 44.6 °F 72% 30.34 in 10.0 mi North 17.3 mph 36.8 mph N/A   Overcast
5:15 AM 53.6 °F 42.8 °F 67% 30.34 in 10.0 mi NNE 24.2 mph 32.2 mph N/A   Mostly Cloudy
5:35 AM 53.6 °F 46.4 °F 77% 30.35 in 10.0 mi North 20.7 mph 33.4 mph N/A   Mostly Cloudy
5:55 AM 53.6 °F 46.4 °F 77% 30.35 in 10.0 mi NNE 28.8 mph - N/A   Mostly Cloudy
6:15 AM 53.6 °F 44.6 °F 72% 30.36 in 10.0 mi NNE 24.2 mph 34.5 mph N/A   Mostly Cloudy
6:35 AM 53.6 °F 44.6 °F 72% 30.37 in 10.0 mi North 21.9 mph 33.4 mph N/A   Scattered Clouds
6:55 AM 53.6 °F 44.6 °F 72% 30.37 in 10.0 mi North 25.3 mph 35.7 mph N/A   Mostly Cloudy
7:15 AM 55.4 °F 44.6 °F 67% 30.38 in 10.0 mi NNE 26.5 mph 34.5 mph N/A   Scattered Clouds
7:35 AM 55.4 °F 44.6 °F 67% 30.39 in 10.0 mi North 21.9 mph 36.8 mph N/A   Partly Cloudy
7:55 AM 55.4 °F 44.6 °F 67% 30.40 in 10.0 mi North 23.0 mph 34.5 mph N/A   Clear
8:15 AM 57.2 °F 46.4 °F 67% 30.40 in 10.0 mi NNE 27.6 mph - N/A   Partly Cloudy
8:35 AM 57.2 °F 42.8 °F 59% 30.40 in 10.0 mi NNE 28.8 mph 36.8 mph N/A   Partly Cloudy
8:55 AM 57.2 °F 42.8 °F 59% 30.40 in 10.0 mi NNE 31.1 mph - N/A   Clear
9:15 AM 57.2 °F 44.6 °F 63% 30.41 in 10.0 mi NNE 27.6 mph 36.8 mph N/A   Clear
9:35 AM 59.0 °F 44.6 °F 59% 30.42 in 10.0 mi NNE 28.8 mph - N/A   Clear
9:55 AM 57.2 °F 44.6 °F 63% 30.42 in 10.0 mi NNE 25.3 mph 32.2 mph N/A   Partly Cloudy
10:15 AM 57.2 °F 42.8 °F 59% 30.42 in 10.0 mi NNE 25.3 mph 32.2 mph N/A   Partly Cloudy
10:35 AM 59.0 °F 42.8 °F 55% 30.41 in 10.0 mi NNE 27.6 mph - N/A   Clear
10:55 AM 59.0 °F 44.6 °F 59% 30.40 in 10.0 mi NNE 26.5 mph 33.4 mph N/A   Clear
11:15 AM 59.0 °F 42.8 °F 55% 30.40 in 10.0 mi NNE 23.0 mph 28.8 mph N/A   Clear
11:35 AM 57.2 °F 44.6 °F 63% 30.39 in 10.0 mi NNE 24.2 mph 29.9 mph N/A   Clear
11:55 AM 59.0 °F 42.8 °F 55% 30.38 in 10.0 mi NNE 23.0 mph 28.8 mph N/A   Clear
12:15 PM 59.0 °F 44.6 °F 59% 30.37 in 10.0 mi NNE 23.0 mph 31.1 mph N/A   Clear
12:35 PM 59.0 °F 42.8 °F 55% 30.37 in 10.0 mi NNE 21.9 mph - N/A   Clear
12:55 PM 59.0 °F 41.0 °F 51% 30.36 in 10.0 mi NNE 21.9 mph - N/A   Clear
1:15 PM 57.2 °F 41.0 °F 55% 30.34 in 10.0 mi NNE 23.0 mph - N/A   Clear
1:35 PM 57.2 °F 39.2 °F 51% 30.34 in 10.0 mi NNE 19.6 mph 26.5 mph N/A   Clear
1:55 PM 57.2 °F 39.2 °F 51% 30.34 in 10.0 mi NNE 17.3 mph 26.5 mph N/A   Clear
2:15 PM 57.2 °F 41.0 °F 55% 30.34 in 10.0 mi NE 12.7 mph 27.6 mph N/A   Clear
2:35 PM 57.2 °F 42.8 °F 59% 30.33 in 10.0 mi NNE 19.6 mph 26.5 mph N/A   Clear
2:55 PM 57.2 °F 42.8 °F 59% 30.33 in 10.0 mi NNE 23.0 mph 28.8 mph N/A   Clear
3:15 PM 57.2 °F 42.8 °F 59% 30.33 in 10.0 mi North 16.1 mph 25.3 mph N/A   Clear
3:35 PM 57.2 °F 42.8 °F 59% 30.33 in 10.0 mi North 16.1 mph 24.2 mph N/A   Clear
3:55 PM 57.2 °F 44.6 °F 63% 30.33 in 10.0 mi NNE 17.3 mph 24.2 mph N/A   Partly Cloudy
4:15 PM 57.2 °F 44.6 °F 63% 30.33 in 10.0 mi North 17.3 mph 24.2 mph N/A   Partly Cloudy
4:35 PM 57.2 °F 42.8 °F 59% 30.33 in 10.0 mi NNE 18.4 mph 24.2 mph N/A   Partly Cloudy
4:55 PM 57.2 °F 42.8 °F 59% 30.34 in 10.0 mi NNE 17.3 mph 24.2 mph N/A   Partly Cloudy
5:15 PM 57.2 °F 42.8 °F 59% 30.34 in 10.0 mi NNE 12.7 mph 23.0 mph N/A   Partly Cloudy
5:35 PM 57.2 °F 42.8 °F 59% 30.34 in 10.0 mi NNE 15.0 mph 21.9 mph N/A   Mostly Cloudy
5:55 PM 57.2 °F 42.8 °F 59% 30.33 in 10.0 mi NNE 17.3 mph - N/A   Mostly Cloudy
6:15 PM 57.2 °F 44.6 °F 63% 30.34 in 10.0 mi NNE 17.3 mph - N/A   Mostly Cloudy
6:35 PM 57.2 °F 44.6 °F 63% 30.34 in 10.0 mi NNE 15.0 mph 23.0 mph N/A   Mostly Cloudy
6:55 PM 57.2 °F 44.6 °F 63% 30.35 in 10.0 mi NNE 17.3 mph 23.0 mph N/A   Overcast
7:15 PM 57.2 °F 42.8 °F 59% 30.35 in 10.0 mi NE 12.7 mph 24.2 mph N/A   Overcast
7:35 PM 57.2 °F 42.8 °F 59% 30.35 in 10.0 mi NE 10.4 mph 23.0 mph N/A   Overcast
7:55 PM 57.2 °F 41.0 °F 55% 30.36 in 10.0 mi NNE 13.8 mph - N/A   Mostly Cloudy
8:15 PM 57.2 °F 41.0 °F 55% 30.36 in 10.0 mi NNE 13.8 mph 24.2 mph N/A   Overcast
8:35 PM 57.2 °F 41.0 °F 55% 30.35 in 10.0 mi NNE 15.0 mph - N/A   Overcast
8:55 PM 57.2 °F 41.0 °F 55% 30.35 in 10.0 mi NNE 16.1 mph 24.2 mph N/A   Overcast
9:15 PM 57.2 °F 41.0 °F 55% 30.34 in 10.0 mi NNE 16.1 mph - N/A   Overcast
9:35 PM 57.2 °F 41.0 °F 55% 30.34 in 10.0 mi NE 10.4 mph 18.4 mph N/A   Overcast
9:55 PM 57.2 °F 42.8 °F 59% 30.34 in 10.0 mi NNE 10.4 mph 21.9 mph N/A   Mostly Cloudy
10:15 PM 57.2 °F 42.8 °F 59% 30.33 in 10.0 mi NE 15.0 mph 21.9 mph N/A   Overcast
10:35 PM 57.2 °F 42.8 °F 59% 30.33 in 10.0 mi NNE 13.8 mph - N/A   Overcast
10:55 PM 57.2 °F 42.8 °F 59% 30.33 in 10.0 mi NNE 13.8 mph 20.7 mph N/A   Overcast
11:15 PM 57.2 °F 42.8 °F 59% 30.32 in 10.0 mi NNE 12.7 mph 19.6 mph N/A   Overcast
11:35 PM 57.2 °F 42.8 °F 59% 30.31 in 10.0 mi ENE 17.3 mph - N/A   Overcast
11:55 PM 57.2 °F 42.8 °F 59% 30.31 in 10.0 mi NE 10.4 mph 24.2 mph N/A   Overcast